DW4135 Weather Reports


time (UTC)temp
C
wind
direction
speed
KPH
gust
KPH
rain 1hr
cm
rain 24hr
cm
rain mn
cm
humidity
%
barometer
mb
20211017164703 21 312 3.2 9.7 0.00 0.00 0.00 46 1022.2
20211017164202 21 105 1.6 8.0 0.00 0.00 0.00 46 1022.3
20211017163702 21 101 1.6 8.0 0.00 0.00 0.00 46 1022.3
20211017163201 20 56 1.6 11.3 0.00 0.00 0.00 49 1022.3
20211017162705 20 70 3.2 11.3 0.00 0.00 0.00 50 1022.4
20211017162200 20 96 3.2 8.0 0.00 0.00 0.00 48 1022.5
20211017161701 20 118 4.8 8.0 0.00 0.00 0.00 48 1022.6
20211017161202 20 126 3.2 8.0 0.00 0.00 0.00 48 1022.6
20211017160702 20 357 3.2 8.0 0.00 0.00 0.00 50 1022.7
20211017160200 20 101 3.2 9.7 0.00 0.00 0.00 49 1022.7
20211017155701 20 278 3.2 9.7 0.00 0.00 0.00 50 1022.6
20211017155201 19 111 1.6 6.4 0.00 0.00 0.00 49 1022.7
20211017154702 19 82 1.6 6.4 0.00 0.00 0.00 50 1022.7
20211017154201 19 103 3.2 9.7 0.00 0.00 0.00 52 1022.6
20211017153701 18 263 3.2 9.7 0.00 0.00 0.00 50 1022.6
20211017153202 18 279 3.2 9.7 0.00 0.00 0.00 51 1022.6
20211017152703 18 65 3.2 11.3 0.00 0.00 0.00 53 1022.5
20211017152201 18 112 3.2 11.3 0.00 0.00 0.00 52 1022.6
20211017151701 18 55 3.2 8.0 0.00 0.00 0.00 54 1022.6
20211017151201 18 72 3.2 6.4 0.00 0.00 0.00 54 1022.7
20211017150702 17 113 4.8 11.3 0.00 0.00 0.00 55 1022.8
20211017150200 17 83 3.2 11.3 0.00 0.00 0.00 54 1022.7
20211017145701 17 157 1.6 8.0 0.00 0.00 0.00 56 1022.8
20211017145201 17 79 1.6 6.4 0.00 0.00 0.00 58 1022.9
20211017144702 17 30 3.2 6.4 0.00 0.00 0.00 60 1022.8
20211017144203 17 86 1.6 8.0 0.00 0.00 0.00 59 1022.9
20211017143701 17 79 1.6 8.0 0.00 0.00 0.00 60 1022.9
20211017143202 16 249 3.2 8.0 0.00 0.00 0.00 61 1022.9
20211017142702 16 79 1.6 6.4 0.00 0.00 0.00 65 1023.0
20211017142205 16 115 1.6 8.0 0.00 0.00 0.00 64 1022.9
20211017141656 16 97 1.6 8.0 0.00 0.00 0.00 67 1022.8
20211017141158 16 110 1.6 6.4 0.00 0.00 0.00 67 1022.8
20211017140658 15 71 1.6 6.4 0.00 0.00 0.00 67 1022.7
20211017140158 15 292 1.6 6.4 0.00 0.00 0.00 67 1022.6
20211017135701 15 89 1.6 4.8 0.00 0.00 0.00 69 1022.7
20211017135157 15 108 0.0 3.2 0.00 0.00 0.00 70 1022.6
20211017134658 14 303 0.0 3.2 0.00 0.00 0.00 71 1022.6
20211017134158 14 129 0.0 3.2 0.00 0.00 0.00 74 1022.6
20211017133702 13 193 0.0 3.2 0.00 0.00 0.00 75 1022.5
20211017133155 12 322 0.0 4.8 0.00 0.00 0.00 77 1022.4
20211017132655 12 263 0.0 4.8 0.00 0.00 0.00 79 1022.5
20211017132154 11 285 0.0 1.6 0.00 0.00 0.00 82 1022.4
20211017131654 11 281 0.0 1.6 0.00 0.00 0.00 83 1022.4
20211017131153 11 333 0.0 1.6 0.00 0.00 0.00 84 1022.4
20211017130653 11 244 0.0 1.6 0.00 0.00 0.00 85 1022.3
20211017130154 10 271 0.0 1.6 0.00 0.00 0.00 86 1022.3
20211017125656 10 270 0.0 1.6 0.00 0.00 0.00 87 1022.2
20211017125158 10 269 0.0 1.6 0.00 0.00 0.00 88 1022.2
20211017124651 10 269 0.0 0.0 0.00 0.00 0.00 88 1022.2
20211017124148 10 269 0.0 0.0 0.00 0.00 0.00 88 1022.2
20211017123649 10 269 0.0 0.0 0.00 0.00 0.00 88 1022.1
20211017123148 10 269 0.0 1.6 0.00 0.00 0.00 88 1022.1
20211017122652 9 269 0.0 1.6 0.00 0.00 0.00 88 1022.0
20211017122150 9 269 0.0 0.0 0.00 0.00 0.00 88 1022.0
20211017121649 9 269 0.0 1.6 0.00 0.00 0.00 88 1021.9
20211017121148 9 259 0.0 1.6 0.00 0.00 0.00 89 1021.9
20211017120653 9 259 0.0 0.0 0.00 0.00 0.00 88 1021.9
20211017120148 9 259 0.0 1.6 0.00 0.00 0.00 88 1021.8
20211017115644 9 259 0.0 1.6 0.00 0.00 0.00 88 1021.9
20211017115146 9 259 0.0 0.0 0.00 0.00 0.00 88 1021.8
20211017114647 9 259 0.0 1.6 0.00 0.00 0.00 88 1021.8
20211017114145 9 259 0.0 1.6 0.00 0.00 0.00 88 1021.8
20211017113648 9 259 0.0 0.0 0.00 0.00 0.00 88 1021.8
20211017113144 9 259 0.0 0.0 0.00 0.00 0.00 88 1021.7
20211017112645 9 259 0.0 0.0 0.00 0.00 0.00 87 1021.7
20211017112149 9 259 0.0 0.0 0.00 0.00 0.00 88 1021.5
20211017111648 9 259 0.0 0.0 0.00 0.00 0.00 87 1021.5
20211017111145 10 259 0.0 1.6 0.00 0.00 0.00 87 1021.4
20211017110643 10 259 0.0 1.6 0.00 0.00 0.00 87 1021.5
20211017110144 10 259 0.0 0.0 0.00 0.00 0.00 87 1021.3
20211017105641 10 259 0.0 0.0 0.00 0.00 0.00 87 1021.3
20211017105141 10 259 0.0 0.0 0.00 0.00 0.00 87 1021.3
20211017104638 10 259 0.0 0.0 0.00 0.00 0.00 87 1021.2
20211017104139 10 259 0.0 0.0 0.00 0.00 0.00 87 1021.1
20211017103638 10 259 0.0 0.0 0.00 0.00 0.00 87 1021.1
20211017103137 10 260 0.0 0.0 0.00 0.00 0.00 87 1021.1
20211017102634 10 259 0.0 1.6 0.00 0.00 0.00 87 1021.1
20211017102135 10 260 0.0 1.6 0.00 0.00 0.00 87 1021.1
20211017101632 10 246 0.0 1.6 0.00 0.00 0.00 87 1021.0
20211017101133 10 245 0.0 1.6 0.00 0.00 0.00 87 1021.0
20211017100634 10 245 0.0 1.6 0.00 0.00 0.00 87 1021.0
20211017100136 10 245 0.0 0.0 0.00 0.00 0.00 87 1020.9
20211017095634 10 245 0.0 0.0 0.00 0.00 0.00 87 1021.0
20211017095131 10 245 0.0 0.0 0.00 0.00 0.00 86 1020.8
20211017094630 10 245 0.0 1.6 0.00 0.00 0.00 86 1020.9
20211017094129 10 245 0.0 1.6 0.00 0.00 0.00 86 1020.9
20211017093630 10 245 0.0 0.0 0.00 0.00 0.00 86 1020.9
20211017093131 10 245 0.0 0.0 0.00 0.00 0.00 85 1020.9
20211017092629 10 245 0.0 1.6 0.00 0.00 0.00 85 1020.9
20211017092130 10 245 0.0 1.6 0.00 0.00 0.00 86 1021.0
20211017091628 10 245 0.0 0.0 0.00 0.00 0.00 86 1020.9
20211017091125 10 245 0.0 1.6 0.00 0.00 0.00 85 1020.9
20211017090617 10 245 0.0 1.6 0.00 0.00 0.00 85 1020.8
20211017090117 10 245 0.0 1.6 0.00 0.00 0.00 85 1020.7
20211017085620 10 245 0.0 1.6 0.00 0.00 0.00 85 1020.7
20211017085118 10 245 0.0 0.0 0.00 0.00 0.00 84 1020.7
20211017084617 10 245 0.0 1.6 0.00 0.00 0.00 84 1020.6
20211017084116 10 245 0.0 1.6 0.00 0.00 0.00 84 1020.6
20211017083619 10 230 0.0 1.6 0.00 0.00 0.00 84 1020.6
20211017083118 10 217 0.0 0.0 0.00 0.00 0.00 84 1020.4
20211017082616 10 217 0.0 0.0 0.00 0.00 0.00 85 1020.4
20211017082116 10 217 0.0 0.0 0.00 0.00 0.00 84 1020.4
20211017081615 10 217 0.0 0.0 0.00 0.00 0.00 84 1020.3
20211017081113 10 217 0.0 0.0 0.00 0.00 0.00 84 1020.5
20211017080613 11 217 0.0 0.0 0.00 0.00 0.00 84 1020.4
20211017080113 11 217 0.0 0.0 0.00 0.00 0.00 83 1020.5
20211017075614 11 217 0.0 0.0 0.00 0.00 0.00 83 1020.4
20211017075108 11 217 0.0 1.6 0.00 0.00 0.00 83 1020.4
20211017074611 11 217 0.0 1.6 0.00 0.00 0.00 84 1020.3
20211017074103 11 211 0.0 0.0 0.00 0.00 0.00 84 1020.4
20211017073603 11 211 0.0 0.0 0.00 0.00 0.00 83 1020.4
20211017073102 11 211 0.0 0.0 0.00 0.00 0.00 84 1020.4
20211017072605 11 211 0.0 0.0 0.00 0.00 0.00 84 1020.4
20211017072101 11 211 0.0 1.6 0.00 0.00 0.00 83 1020.4
20211017071601 11 211 0.0 1.6 0.00 0.00 0.00 83 1020.6
20211017071101 11 211 0.0 0.0 0.00 0.00 0.00 83 1020.6
20211017070601 11 211 0.0 0.0 0.00 0.00 0.00 83 1020.6
20211017070102 11 211 0.0 0.0 0.00 0.00 0.00 82 1020.6
20211017065601 11 211 0.0 0.0 0.00 0.00 0.00 83 1020.7
20211017065103 11 211 0.0 0.0 0.00 0.00 0.00 82 1020.7
20211017064603 11 211 0.0 0.0 0.00 0.00 0.00 82 1020.7
20211017064102 11 211 0.0 0.0 0.00 0.00 0.00 81 1020.7
20211017063602 11 211 0.0 0.0 0.00 0.00 0.00 81 1020.6
20211017063102 11 211 0.0 1.6 0.00 0.00 0.00 81 1020.7
20211017062601 12 211 0.0 1.6 0.00 0.00 0.00 81 1020.7
20211017062106 12 201 0.0 0.0 0.00 0.00 0.00 81 1020.7
20211017061559 12 202 0.0 0.0 0.00 0.00 0.00 81 1020.6
20211017061058 12 202 0.0 0.0 0.00 0.00 0.00 80 1020.7
20211017060558 12 201 0.0 0.0 0.00 0.00 0.00 80 1020.7
20211017060059 12 201 0.0 0.0 0.00 0.00 0.00 80 1020.7
20211017055558 12 201 0.0 0.0 0.00 0.00 0.00 80 1020.7
20211017055057 12 201 0.0 0.0 0.00 0.00 0.00 80 1020.7
20211017054554 12 200 0.0 0.0 0.00 0.00 0.00 80 1020.7
20211017054053 12 207 0.0 1.6 0.00 0.00 0.00 80 1020.7
20211017053553 12 207 0.0 1.6 0.00 0.00 0.00 80 1020.7
20211017053052 12 154 0.0 1.6 0.00 0.00 0.00 79 1020.8
20211017052550 12 196 0.0 0.0 0.00 0.00 0.00 79 1020.8
20211017052047 12 281 0.0 0.0 0.00 0.00 0.00 79 1020.8
20211017051548 12 281 0.0 0.0 0.00 0.00 0.00 79 1020.8
20211017051047 12 281 0.0 0.0 0.00 0.00 0.00 78 1020.8
20211017050545 13 281 0.0 0.0 0.00 0.00 0.00 78 1020.9
20211017050043 13 281 0.0 0.0 0.00 0.00 0.00 78 1021.0
20211017045541 13 281 0.0 0.0 0.00 0.00 0.00 78 1020.9
20211017045039 13 281 0.0 0.0 0.00 0.00 0.00 77 1020.9
20211017044535 13 281 0.0 0.0 0.00 0.00 0.00 76 1020.9
20211017044034 13 281 0.0 0.0 0.00 0.00 0.00 77 1020.9
20211017043529 13 282 0.0 0.0 0.00 0.00 0.00 77 1020.9
20211017043029 13 282 0.0 0.0 0.00 0.00 0.00 77 1020.9
20211017042526 13 281 0.0 0.0 0.00 0.00 0.00 77 1020.9
20211017042019 13 281 0.0 0.0 0.00 0.00 0.00 77 1020.9
20211017041512 13 281 0.0 0.0 0.00 0.00 0.00 76 1020.9
20211017041004 13 282 0.0 0.0 0.00 0.00 0.00 78 1021.0
20211017040505 13 150 0.0 0.0 0.00 0.00 0.00 78 1020.9
20211017040003 13 223 0.0 0.0 0.00 0.00 0.00 78 1021.0
20211017035501 13 172 0.0 0.0 0.00 0.00 0.00 77 1021.0
20211017035002 13 172 0.0 0.0 0.00 0.00 0.00 77 1020.9
20211017034502 13 172 0.0 0.0 0.00 0.00 0.00 78 1020.8
20211017034003 13 169 0.0 0.0 0.00 0.00 0.00 78 1020.8
20211017033504 13 169 0.0 0.0 0.00 0.00 0.00 77 1020.7
20211017033002 13 169 0.0 0.0 0.00 0.00 0.00 78 1020.7
20211017032502 13 169 0.0 0.0 0.00 0.00 0.00 77 1020.6
20211017032006 13 169 0.0 0.0 0.00 0.00 0.00 77 1020.5
20211017031502 13 256 0.0 0.0 0.00 0.00 0.00 77 1020.5
20211017031002 14 256 0.0 1.6 0.00 0.00 0.00 76 1020.6
20211017030502 14 256 0.0 1.6 0.00 0.00 0.00 76 1020.6
20211017030005 14 256 0.0 0.0 0.00 0.00 0.00 76 1020.6
20211017025501 14 256 0.0 0.0 0.00 0.00 0.00 77 1020.5
20211017025001 14 256 0.0 1.6 0.00 0.00 0.00 76 1020.4
20211017024503 14 255 0.0 1.6 0.00 0.00 0.00 75 1020.4
20211017023959 15 263 0.0 0.0 0.00 0.00 0.00 75 1020.4
20211017023453 15 264 0.0 1.6 0.00 0.00 0.00 75 1020.4
20211017022947 15 264 0.0 1.6 0.00 0.00 0.00 75 1020.2
20211017022449 15 216 0.0 0.0 0.00 0.00 0.00 75 1020.2
20211017021945 15 216 0.0 0.0 0.00 0.00 0.00 74 1020.2
20211017021445 15 216 0.0 0.0 0.00 0.00 0.00 73 1020.1
20211017020945 15 216 0.0 1.6 0.00 0.00 0.00 73 1020.0
20211017020443 15 216 0.0 1.6 0.00 0.00 0.00 72 1019.9
20211017015940 15 216 0.0 1.6 0.00 0.00 0.00 72 1019.9
20211017015440 15 216 0.0 1.6 0.00 0.00 0.00 72 1019.7
20211017014938 15 216 0.0 1.6 0.00 0.00 0.00 72 1019.7
20211017014438 15 216 0.0 1.6 0.00 0.00 0.00 72 1019.6
20211017013935 16 216 0.0 1.6 0.00 0.00 0.00 71 1019.6
20211017013435 16 195 0.0 1.6 0.00 0.00 0.00 71 1019.5
20211017012933 16 97 0.0 0.0 0.00 0.00 0.00 71 1019.5
20211017012432 16 98 0.0 1.6 0.00 0.00 0.00 71 1019.5
20211017011929 16 93 0.0 1.6 0.00 0.00 0.00 70 1019.4
20211017011429 16 93 0.0 1.6 0.00 0.00 0.00 70 1019.4
20211017010931 16 93 0.0 1.6 0.00 0.00 0.00 71 1019.2
20211017010430 16 97 0.0 1.6 0.00 0.00 0.00 68 1019.2
20211017005930 16 98 0.0 1.6 0.00 0.00 0.00 68 1019.1
20211017005432 16 97 0.0 1.6 0.00 0.00 0.00 68 1019.0
20211017004929 17 98 0.0 1.6 0.00 0.00 0.00 68 1019.0
20211017004431 17 198 0.0 3.2 0.00 0.00 0.00 66 1018.9
20211017003931 17 124 0.0 3.2 0.00 0.00 0.00 67 1018.9
20211017003432 17 145 0.0 4.8 0.00 0.00 0.00 67 1018.8
20211017002931 17 286 0.0 4.8 0.00 0.00 0.00 67 1018.8
20211017002429 17 272 0.0 1.6 0.00 0.00 0.00 69 1018.7
20211017001930 17 276 0.0 1.6 0.00 0.00 0.00 68 1018.7
20211017001430 17 159 0.0 1.6 0.00 0.00 0.00 69 1018.6
20211017000930 17 278 0.0 1.6 0.00 0.00 0.00 70 1018.5
20211017000430 17 286 0.0 1.6 0.00 0.00 0.00 71 1018.4
20211016235930 17 286 0.0 0.0 0.00 0.00 0.00 70 1018.4
20211016235431 17 286 0.0 1.6 0.00 0.00 0.00 69 1018.3
20211016234930 18 286 0.0 1.6 0.00 0.00 0.00 68 1018.2
20211016234429 18 286 0.0 1.6 0.00 0.00 0.00 66 1018.2
20211016233930 18 286 0.0 1.6 0.00 0.00 0.00 67 1018.1
20211016233431 18 286 0.0 3.2 0.00 0.00 0.00 66 1018.0
20211016232929 18 286 0.0 3.2 0.00 0.00 0.00 66 1017.8
20211016232431 18 147 0.0 3.2 0.00 0.00 0.00 65 1017.8
20211016231931 18 101 0.0 4.8 0.00 0.00 0.00 64 1017.7
20211016231432 19 304 0.0 4.8 0.00 0.00 0.00 65 1017.6
20211016230930 19 16 0.0 4.8 0.00 0.00 0.00 64 1017.6
20211016230430 19 213 0.0 3.2 0.00 0.00 0.00 66 1017.4
20211016225931 20 10 0.0 1.6 0.00 0.00 0.00 65 1017.3
20211016225430 20 161 1.6 11.3 0.00 0.00 0.00 64 1017.2
20211016224932 20 274 1.6 11.3 0.00 0.00 0.00 63 1017.2
20211016224432 20 141 0.0 6.4 0.00 0.00 0.00 61 1017.1
20211016223928 20 8 1.6 6.4 0.00 0.00 0.00 63 1017.0
20211016223430 20 162 1.6 9.7 0.00 0.00 0.00 62 1016.9
20211016222930 20 316 1.6 9.7 0.00 0.00 0.00 61 1016.8
20211016222429 20 320 1.6 6.4 0.00 0.00 0.00 63 1016.7
20211016221929 21 56 0.0 8.0 0.00 0.00 0.00 61 1016.7
20211016221430 21 294 0.0 8.0 0.00 0.00 0.00 63 1016.6
20211016220929 21 86 1.6 9.7 0.00 0.00 0.00 63 1016.6
20211016220430 21 117 1.6 9.7 0.00 0.00 0.00 62 1016.5
20211016215929 21 311 1.6 11.3 0.00 0.00 0.00 62 1016.5
20211016215430 21 107 1.6 11.3 0.00 0.00 0.00 60 1016.5
20211016214933 21 266 1.6 4.8 0.00 0.00 0.00 60 1016.5
20211016214432 21 89 0.0 4.8 0.00 0.00 0.00 60 1016.5
20211016213931 21 146 0.0 4.8 0.00 0.00 0.00 60 1016.6
20211016213430 21 264 1.6 4.8 0.00 0.00 0.00 60 1016.5
20211016212931 22 96 1.6 9.7 0.00 0.00 0.00 57 1016.2
20211016212432 22 77 1.6 9.7 0.00 0.00 0.00 58 1016.2
20211016211933 22 322 1.6 8.0 0.00 0.00 0.00 59 1016.2
20211016211428 22 82 1.6 8.0 0.00 0.00 0.00 57 1016.2
20211016210930 22 86 0.0 6.4 0.00 0.00 0.00 60 1016.2
20211016210429 22 320 0.0 6.4 0.00 0.00 0.00 58 1016.2
20211016205930 22 179 1.6 11.3 0.00 0.00 0.00 59 1016.2
20211016205428 22 214 1.6 11.3 0.00 0.00 0.00 59 1016.3
20211016204928 23 293 1.6 6.4 0.00 0.00 0.00 59 1016.3
20211016204429 23 291 0.0 4.8 0.00 0.00 0.00 57 1016.3
20211016203928 23 196 0.0 4.8 0.00 0.00 0.00 58 1016.3
20211016203427 23 269 1.6 4.8 0.00 0.00 0.00 55 1016.3
20211016202929 23 252 1.6 11.3 0.00 0.00 0.00 56 1016.3
20211016202427 23 19 1.6 11.3 0.00 0.00 0.00 55 1016.5
20211016201926 24 267 1.6 9.7 0.00 0.00 0.00 53 1016.3
20211016201429 24 210 1.6 9.7 0.00 0.00 0.00 56 1016.3
20211016200922 24 297 1.6 9.7 0.00 0.00 0.00 61 1016.2
20211016200424 24 300 1.6 9.7 0.00 0.00 0.00 58 1016.2
20211016195923 24 100 1.6 8.0 0.00 0.00 0.00 59 1016.1
20211016195423 24 305 1.6 8.0 0.00 0.00 0.00 59 1016.2
20211016194922 24 275 1.6 4.8 0.00 0.00 0.00 58 1016.1
20211016194422 24 311 1.6 6.4 0.00 0.00 0.00 60 1016.2
20211016193924 24 260 1.6 12.9 0.00 0.00 0.00 60 1016.2
20211016193423 24 307 1.6 12.9 0.00 0.00 0.00 59 1016.1
20211016192927 24 271 1.6 19.3 0.00 0.00 0.00 60 1016.2
20211016192419 24 72 1.6 19.3 0.00 0.00 0.00 60 1016.1
20211016191920 24 271 3.2 11.3 0.00 0.00 0.00 60 1016.1
20211016191421 24 81 3.2 9.7 0.00 0.00 0.00 61 1016.0
20211016190921 24 143 1.6 9.7 0.00 0.00 0.00 60 1016.0
20211016190418 24 274 1.6 8.0 0.00 0.00 0.00 61 1016.1
20211016185920 23 255 3.2 8.0 0.00 0.00 0.00 61 1016.2
20211016185420 23 306 3.2 8.0 0.00 0.00 0.00 62 1016.3
20211016184918 23 283 3.2 8.0 0.00 0.00 0.00 62 1016.3
20211016184423 23 281 1.6 8.0 0.00 0.00 0.00 62 1016.3
20211016183915 24 289 1.6 11.3 0.00 0.00 0.00 62 1016.5
20211016183417 23 197 3.2 11.3 0.00 0.00 0.00 63 1016.6
20211016182914 23 231 3.2 11.3 0.00 0.00 0.00 64 1016.5
20211016182416 23 257 3.2 11.3 0.00 0.00 0.00 65 1016.6
20211016181915 23 82 3.2 11.3 0.00 0.00 0.00 64 1016.7
20211016181415 23 282 1.6 8.0 0.00 0.00 0.00 66 1016.7
20211016180914 23 299 1.6 9.7 0.00 0.00 0.00 65 1016.7
20211016180415 23 243 1.6 9.7 0.00 0.00 0.00 68 1016.8
20211016175920 23 122 1.6 8.0 0.00 0.00 0.00 68 1016.9
20211016175417 23 280 1.6 8.0 0.00 0.00 0.00 67 1016.9
20211016174915 23 276 1.6 8.0 0.00 0.00 0.00 69 1016.9
20211016174414 23 53 1.6 8.0 0.00 0.00 0.00 70 1016.9
20211016173915 23 282 1.6 8.0 0.00 0.00 0.00 70 1017.0
20211016173413 23 289 3.2 11.3 0.00 0.00 0.00 72 1016.9
20211016172912 23 110 3.2 11.3 0.00 0.00 0.00 72 1016.9
20211016172412 23 99 3.2 9.7 0.00 0.00 0.00 73 1017.0
20211016171914 23 98 3.2 9.7 0.00 0.00 0.00 73 1017.2
20211016171415 23 264 1.6 9.7 0.00 0.00 0.00 76 1017.2
20211016170910 23 236 1.6 12.9 0.00 0.00 0.00 75 1017.3
20211016170410 23 177 0.0 12.9 0.00 0.00 0.00 75 1017.4
20211016165909 23 288 1.6 9.7 0.00 0.00 0.00 79 1017.4
20211016165410 22 126 1.6 9.7 0.00 0.00 0.00 82 1017.4